Regional Weather Roundup
Issued by NWS

Home | Current Version | Previous Version | Text Only | Print | Product List | Glossary Off
Versions: 1 2 3 4 5 6 7 8 9 10 11 12 13 14 15 16 17 18 19 20 21 22 23 24 25 26 27 28 29 30 31 32 33 34 35 36 37 38 39 40 41 42 43 44 45 46 47 48 49 50

000
ASUS43 KMPX 211310
RWRMN
WEATHER ROUNDUP FOR MINNESOTA
NATIONAL WEATHER SERVICE TWIN CITIES/CHANHASSEN MN
800 AM CDT TUE OCT 21 2014


NOTE: "FAIR" INDICATES FEW OR NO CLOUDS BELOW 12,000 FEET WITH NO
SIGNIFICANT WEATHER AND/OR OBSTRUCTIONS TO VISIBILITY. N/A MEANS
CURRENT SKY AND/OR WEATHER CONDITIONS ARE NOT AVAILABLE.

MNZ060>063-068>070-211400-
   Twin Cities Metro

CITY           SKY/WX    TMP DP  RH WIND       PRES   REMARKS
TWIN CITIES    CLEAR     41  37  86 VRB5      30.19R
ST PAUL        CLEAR     39  37  92 CALM      30.20R
CRYSTAL        CLEAR     32  30  92 CALM      30.17R
BLAINE         CLEAR     34  34 100 MISG        N/A
LAKEVILLE      FOG       28  28 100 CALM      30.18R VSB<1/4
EDEN PRAIRIE   CLEAR     39  38  96 E5        30.17R
SOUTH ST PAUL  CLEAR     37  35  93 CALM      30.19R
LAKE ELMO      FAIR      32  32 100 CALM      30.20R
$$
MNZ001>005-007-008-013>017-022>024-027-028-211400-
   Northwest Minnesota

CITY           SKY/WX    TMP DP  RH WIND       PRES   REMARKS
BEMIDJI        CLEAR     35  34  96 SE8       30.12S WCI  28
HALLOCK        CLEAR     37  36  93 SE10      30.03F
ROSEAU         CLEAR     37  34  87 SE7       30.08F
WARROAD        CLEAR     37  34  87 SE9       30.10F
THIEF RVR FALL CLEAR     36  34  93 SE8       30.07S
CROOKSTON      CLEAR     39  37  93 SE14      30.05F
FOSSTON        CLEAR     37  34  87 SE8       30.08S
DETROIT LAKES  CLEAR     39  37  93 SE14      30.08F
MOORHEAD       CLEAR     45  43  93 SE13      30.05S
PARK RAPIDS    CLEAR     35  34  96 SE8       30.12S WCI  29
MAHNOMEN       FAIR      40  37  87 SE12      30.07S
$$
MNZ006-009>011-018-025>026-211400-
   North Central Minnesota

CITY           SKY/WX    TMP DP  RH WIND       PRES   REMARKS
BAUDETTE       CLEAR     36  33  89 SE7       30.14S
FLAG ISLAND    CLEAR     41  37  87 SE17      30.11S
INTL FALLS     PTCLDY    32  30  92 SE6       30.17S WCI  26
WASKISH        CLEAR     32  32 100 CALM      30.13F
BIG FORK       CLEAR     36  32  87 SE3       30.18R
LONGVILLE      CLEAR     28  27  93 CALM      30.16R
GRAND RAPIDS   CLEAR     37  34  87 SE5       30.17S
CRANE LAKE     CLOUDY    37  34  87 CALM      30.22S
ORR            CLOUDY    39  32  75 SE5       30.17S
COOK           CLOUDY    39  34  81 SE7       30.20S
WALKER         FAIR      37  35  90 SE5       30.14S
$$
MNZ012-019>021-037-211400-
   Northeast Minnesota

CITY           SKY/WX    TMP DP  RH WIND       PRES   REMARKS
DULUTH         CLOUDY    42  35  76 SE13      30.20R
ELY            CLOUDY    37  32  81 SE6       30.22R
HIBBING        CLOUDY    41  34  76 SE9       30.20R
EVELETH        CLOUDY    39  34  81 SE8       30.21S
DULUTH HARBOR  CLOUDY    45  37  76 E9        30.23S
TWO HARBORS    CLOUDY    45  27  49 E8        30.21S
SILVER BAY     MOCLDY    43  36  75 NE6       30.22R
GRAND MARAIS     N/A     40  31  70 VRB6      30.27R
G MARAIS ARPRT CLOUDY    32  27  80 CALM      30.24R
$$
MNZ029>031-032-039>041-046>048-054>057-064-211400-
   West Central Minnesota

CITY           SKY/WX    TMP DP  RH WIND       PRES   REMARKS
FERGUS FALLS   CLEAR     43  36  75 SE13      30.09S
WHEATON        CLEAR     37  36  93 SE12      30.08F
MORRIS         CLEAR     39  37  93 SE13      30.08S
ALEXANDRIA     CLEAR     38  35  89 SE10      30.13S
ELBOW LAKE     FAIR      42  38  84 SE14      30.08S
WADENA         CLEAR     34  34 100 SE6       30.12S WCI  29
GLENWOOD       CLEAR     36  34  93 E8        30.13S
APPLETON       CLEAR     39  37  93 SE10      30.09S
BENSON         CLEAR     39  37  93 SE10G16   30.11S
ORTONVILLE     CLEAR     37  36  93 SE8       30.07F
MADISON        CLEAR     41  39  93 SE7       30.08F
WILLMAR        FAIR      43  37  81 SE9       30.15R
$$
MNZ033>034-036-042>043-049>051-058-059-211400-
   Central Minnesota

CITY           SKY/WX    TMP DP  RH WIND       PRES   REMARKS
ST CLOUD       FAIR      38  34  85 E5        30.17R
SAUK CENTRE    FAIR      35  35  97 E6        30.15S WCI  30
PAYNESVILLE    CLEAR     36  35  95 NE5       30.16R
AITKIN         PTCLDY    34  28  80 E3        30.16R
PINE RIVER     PTCLDY    36  34  93 SE5       30.18S
BRAINERD       FOG       30  30 100 CALM      30.17R VSB 3/4
STAPLES        PTCLDY    34  34 100 E3        30.14S
LONG PRAIRIE   FAIR      36  34  93 SE6       30.15R
LITTLE FALLS   PTCLDY    34  32  93 CALM      30.17R
LITCHFIELD     CLEAR     36  36 100 E3        30.16S
BUFFALO        CLEAR     35  33  93 CALM      30.19R
MAPLE LAKE     CLEAR     38  38  99 E5        30.18R
$$
MNZ037-044-045-052-053-211400-
   East Central Minnesota

CITY           SKY/WX    TMP DP  RH WIND       PRES   REMARKS
PRINCETON      CLEAR     30  28  93 CALM      30.19R
MORA           PTCLDY    34  32  93 CALM      30.21R
CAMBRIDGE      PTCLDY    32  27  80 CALM      30.17R
RUSH CITY      PTCLDY    35  34  95 E3        30.20R
MOOSE LAKE     CLOUDY    41  36  81 E7        30.18S
HINCKLEY       FAIR      37  36  93 E3        30.19R
CLOQUET        CLOUDY    41  36  81 E7        30.20S
MCGREGOR       PTCLDY    34  34 100 E6        30.19R WCI  29
$$
MNZ071>073-080-081-089-090-097-098-211400-
   Southwest Minnesota

CITY           SKY/WX    TMP DP  RH WIND       PRES   REMARKS
MONTEVIDEO     CLEAR     36  36 100 S8        30.11F
GRANITE FALLS  CLEAR     38  37  93 E8        30.13S
CANBY          CLEAR     35  34  96 SE5       30.09F WCI  31
MARSHALL       CLEAR     37  32  81 SE8       30.09F
REDWOOD FALLS  CLEAR     39  36  89 E6        30.13S
OLIVIA         CLEAR     39  36  87 E8        30.13S
PIPESTONE      CLEAR     46  37  71 S8        30.08F
WINDOM         PTCLDY    37  36  93 CALM      30.12S
WORTHINGTON    CLEAR     37  34  87 S3        30.12S
JACKSON        PTCLDY    36  32  87 CALM      30.13S
TRACY          CLEAR     45  39  78 S10       30.10F
SLAYTON        CLEAR     36  35  95 CALM      30.11S
$$
MNZ065>067-074>077-082>085-091>093-211400-
   South Central Minnesota

CITY           SKY/WX    TMP DP  RH WIND       PRES   REMARKS
MANKATO        CLEAR     39  34  81 E7        30.16R
NEW ULM        PTCLDY    37  37 100 E3        30.15R FOG
ST JAMES       PTCLDY    36  36 100 E5        30.15S FOG
FAIRMONT       PTCLDY    34  28  80 CALM      30.14S
GLENCOE        CLEAR     38  38  97 E5        30.16S
FARIBAULT      CLEAR     30  30 100 CALM      30.17S FOG
OWATONNA       CLEAR     37  36  93 E5        30.17R
WASECA         CLEAR     36  32  87 E5        30.17S
ALBERT LEA     CLEAR     36  36 100 CALM      30.16R
$$
MNZ078>079-086>088-094>096-211400-
   Southeast Minnesota

CITY           SKY/WX    TMP DP  RH WIND       PRES   REMARKS
ROCHESTER      CLEAR     38  36  92 E6        30.18R
RED WING       CLEAR     34  32  93 CALM      30.19R
STANTON        FOG       30  29  94 CALM      30.17R VSB 1/4
DODGE CENTER   PTCLDY    36  36 100 CALM      30.17R
WINONA         CLEAR     37  36  93 CALM      30.21R
AUSTIN         CLEAR     36  36 100 CALM      30.16R
PRESTON        CLEAR     37  35  94 NE5       30.18R
$$
ABBREVIATIONS USED IN REMARKS
   TC - TEMPERATURES IN CELSIUS
  WCI - WIND CHILL INDEX
   HX - HEAT INDEX
  VSB - VISIBILITY
$$



USA.gov is the U.S. government's official web portal to all federal, state and local government web resources and services.